Regional Weather Roundup
Issued by NWS

Home | Current Version | Previous Version | Graphics & Text | Print | Product List | Glossary On
Versions: 1 2 3 4 5 6 7 8 9 10 11 12 13 14 15 16 17 18 19 20 21 22 23 24 25 26 27 28 29 30 31 32 33 34 35 36 37 38 39 40 41 42 43 44 45 46 47 48 49 50
000
ASUS43 KLOT 261900
RWRIL

ILLINOIS REGIONAL WEATHER ROUNDUP
NATIONAL WEATHER SERVICE CHICAGO/ROMEOVILLE IL
100 PM CST THU FEB 26 2015

NOTE: "FAIR" INDICATES FEW OR NO CLOUDS BELOW 12,000 FEET WITH NO
SIGNIFICANT WEATHER AND/OR OBSTRUCTIONS TO VISIBILITY.

* THESE STATIONS ARE NOT UNDER NWS QUALITY CONTROL. THEY ALSO MAY NOT
  REPORT WEATHER SUCH AS PRECIPITATION OR FOG.

ILZ001-002-007-009-015-016-024-262000-
NORTHWEST ILLINOIS

CITY           SKY/WX    TMP DP  RH WIND       PRES   REMARKS
MOLINE         SUNNY     14   2  58 NW10      30.33S WCI   1
STERLING*      CLOUDY    16   3  57 N13       30.31S WCI   2
$$

ILZ003-004-008-010-011-017-018-262000-
NORTH CENTRAL ILLINOIS

CITY           SKY/WX    TMP DP  RH WIND       PRES   REMARKS
ROCKFORD       CLOUDY    14  -1  51 N14       30.30S WCI  -1
$$

ILZ005-006-012>014-019>023-262000-
NORTHEAST ILLINOIS

CITY           SKY/WX    TMP DP  RH WIND       PRES   REMARKS
CHICAGO-OHARE  PTSUNNY   18   4  54 N16       30.24R WCI   3
CHICAGO-MIDWAY LGT SNOW  19  12  74 N14       30.24S VSB 3/4 WCI   6
AURORA         MOSUNNY   18   6  59 N14       30.25S WCI   4
WAUKEGAN       NOT AVBL
DUPAGE AIRPORT CLOUDY    19   5  54 N13       30.23S WCI   6
WHEELING       MOSUNNY   17   0  47 N15G26    30.26R WCI   2
NORTHERLY ISL    N/A     18   9  68 N12         N/A  WCI   6
$$

LMZ740>746-262000-
SOUTHERN LAKE MICHIGAN

STATION/POSITION SKY/WX   TEMP    WIND        PRES    VSBY  WAVE
                          AIR SEA DIR/SP/G                  HT/PER
                          (F)     (DEG/KT/KT) (MB)    (MI)  (FT/S)
WAUKEGAN HARBOR            16     320/ 12/ 22   N/A
HARRISON CRIB              16      20/ 18/ 24   N/A
BURNHAM HARBOR             17     360/ 10/ 18   N/A
CALUMET HARBOR             17      20/ 13/ 16 1022.6S
MICHIGAN CITY              13      10/ 15/ 17   N/A
$$

ILZ025>027-034>036-040-047-049-050-058-095>099-262000-
WEST-CENTRAL ILLINOIS

CITY           SKY/WX    TMP DP  RH WIND       PRES   REMARKS
QUINCY         MOSUNNY   16   4  59 NW17      30.32S WCI   0
$$

ILZ028>032-037-038-041>044-048-051>054-059>061-262000-
CENTRAL ILLINOIS

CITY           SKY/WX    TMP DP  RH WIND       PRES   REMARKS
DECATUR        CLOUDY    21  15  78 N18       30.21F WCI   6
PEORIA         CLOUDY    18   8  65 N10       30.28S WCI   6
SPRINGFIELD    CLOUDY    20  11  68 N15       30.26S WCI   6
TAYLORVILLE    NOT AVBL
$$

ILZ033-039-045-046-055>057-062-063-262000-
EAST-CENTRAL ILLINOIS

CITY           SKY/WX    TMP DP  RH WIND       PRES   REMARKS
CHAMPAIGN      FLURRIES  21  13  71 N16       30.19S WCI   7
MATTOON        PTSUNNY   22  15  75 N18       30.17S WCI   7
$$

ILZ079-100>102-262000-
SOUTHWEST ILLINOIS

CITY           SKY/WX    TMP DP  RH WIND       PRES   REMARKS
CAHOKIA*       CLOUDY    24  17  74 N17       30.27R WCI  11
$$

ILZ064>066-069>071-074>076-080>082-084>086-088>090-092>094-262000-
SOUTH-CENTRAL ILLINOIS

CITY           SKY/WX    TMP DP  RH WIND       PRES   REMARKS
CARBONDALE     FLURRIES  26  19  74 N18G24    30.20R WCI  13
MARION         CLOUDY    28  21  74 NW12      30.19R WCI  18
MT. VERNON     CLOUDY    25  16  68 N8        30.19R WCI  16
$$

ILZ067-068-072-073-078-083-087-091-262000-
SOUTHEAST ILLINOIS

CITY           SKY/WX    TMP DP  RH WIND       PRES   REMARKS
LAWRENCEVILLE  CLOUDY    27  17  66 N18       30.15F WCI  14
$$

ABBREVIATIONS USED IN REMARKS
   TC - TEMPERATURE IN CELSIUS
  WCI - WIND CHILL INDEX
   HX - HEAT INDEX
  VSB - VISIBILITY
$$



USA.gov is the U.S. government's official web portal to all federal, state and local government web resources and services.